Location: Kitchener-Waterloo
(43.4500°N, 80.5000°W)
Time: 00:23:34
(UTC-04:00)

Amateur Radio Satellites - All Passes

Search period start: 07 July 2015 23:53
Search period end: 08 July 2015 23:53
Location: Kitchener-Waterloo, 43.4500°N, 80.5000°W

Satellite Date Start Highest point End Downlink Frequencies (MHz)
Time Altitude Azimuth
UNISAT 6 07 Jul 23:54:46 23:59:10 66° 101° (ESE) 00:03:40 437.425
UKube-1 07 Jul 23:55:50 23:59:43 31° 264° (W) 00:03:34 .
QB50P1 07 Jul 23:56:20 23:59:56 27° 95° (E) 00:03:34 145.935-145.965
AUBIESAT-1 07 Jul 23:57:39 00:00:18 16° 300° (WNW) 00:02:54 437.475
NANOSAT C BR1 08 Jul 00:08:50 00:12:43 36° 97° (E) 00:16:38 145.865
DUCHIFAT 1 08 Jul 00:14:22 00:18:21 41° 98° (E) 00:22:19 145.980
BUGSAT 1 08 Jul 00:14:55 00:18:20 26° 95° (E) 00:21:47 437.445
TISAT 1 08 Jul 00:17:54 00:21:32 29° 69° (ENE) 00:25:14 437.305
50 SAT 08 Jul 00:19:20 00:22:23 22° 266° (W) 00:25:22 437.505
POLYITAN 1 08 Jul 00:24:15 00:28:24 57° 100° (E) 00:32:33 437.675
AISAT 08 Jul 00:34:34 00:38:01 21° 267° (W) 00:41:22 437.250
CUBEBUG 1 08 Jul 00:39:35 00:43:37 33° 264° (W) 00:47:36 437.445
ANTELSAT 08 Jul 00:39:35 00:43:47 42° 288° (WNW) 00:48:01 437.575/2403.000
Cosmos 2499 08 Jul 00:48:34 00:51:57 13° 282° (WNW) 00:54:48 435.465 / 435.565
TIGRISAT 08 Jul 00:50:23 00:54:22 34° 290° (WNW) 00:58:24 435.000
POPSAT HIP 1 08 Jul 00:53:04 00:57:15 70° 285° (WNW) 01:01:26 437.405
QB50P2 08 Jul 00:53:20 00:57:33 67° 285° (WNW) 01:01:43 145.880/145.840
BEESAT 08 Jul 00:53:34 00:56:07 15° 61° (ENE) 00:58:51 436.000
RS-15 08 Jul 01:01:15 01:09:17 26° 104° (ESE) 01:17:56 29.354- 29.394
SWISSCUBE 08 Jul 01:08:34 01:12:09 22° 65° (ENE) 01:15:52 437.505
SO-50 08 Jul 01:09:32 01:14:30 68° 53° (NE) 01:19:22 436.795
ITUPSAT 1 08 Jul 01:15:38 01:19:19 23° 65° (ENE) 01:23:09 437.325
PCSat 08 Jul 01:18:38 01:23:56 55° 245° (WSW) 01:29:11 145.827
Cosmos 2491 08 Jul 01:21:30 01:28:23 26° 63° (ENE) 01:35:30 435.465 / 435.565
ESTCUBE 1 08 Jul 01:22:38 01:24:19 11° 273° (W) 01:25:44 437.505/2401.250
SPROUT 08 Jul 01:26:56 01:30:53 33° 264° (W) 01:34:47 437.525
QB50P1 08 Jul 01:32:10 01:35:45 27° 292° (WNW) 01:39:16 145.935-145.965
UNISAT 6 08 Jul 01:33:10 01:35:30 14° 297° (WNW) 01:37:41 437.425
NANOSAT C BR1 08 Jul 01:45:10 01:48:22 21° 293° (WNW) 01:51:26 145.865
BUGSAT 1 08 Jul 01:50:23 01:53:45 25° 292° (WNW) 01:57:03 437.445
DUCHIFAT 1 08 Jul 01:50:54 01:53:54 19° 294° (WNW) 01:56:45 145.980
TISAT 1 08 Jul 01:53:44 01:57:19 26° 266° (W) 02:00:50 437.305
Oscar 19 08 Jul 01:57:27 02:01:21 22° 92° (E) 02:05:22 437.125/150
YUBILEINY 08 Jul 01:59:22 02:03:37 15° 77° (ENE) 02:08:27 435.215
POLYITAN 1 08 Jul 02:01:32 02:03:55 14° 296° (WNW) 02:06:07 437.675
AIST 1 08 Jul 02:16:40 02:20:18 26° 72° (ENE) 02:23:57
BEESAT 08 Jul 02:28:40 02:33:25 71° 257° (WSW) 02:38:15 436.000
Gurwin Techsat 1B 08 Jul 02:34:39 02:37:29 15° 88° (E) 02:40:34 435.225
KKS-1 08 Jul 02:41:13 02:44:59 28° 68° (ENE) 02:48:49 437.445
SWISSCUBE 08 Jul 02:45:09 02:49:44 45° 262° (W) 02:54:21 437.505
SO-50 08 Jul 02:51:21 02:54:33 17° 250° (WSW) 02:57:33 436.795
ITUPSAT 1 08 Jul 02:52:26 02:56:59 42° 262° (W) 03:01:35 437.325
RS-15 08 Jul 03:09:28 03:20:25 85° 305° (NW) 03:31:47 29.354- 29.394
Cosmos 2491 08 Jul 03:17:32 03:26:17 74° 265° (W) 03:34:55 435.465 / 435.565
STARS 08 Jul 03:23:01 03:27:13 46° 71° (ENE) 03:31:26 437.465
JAS-2 08 Jul 03:29:12 03:33:56 20° 89° (E) 03:39:17 435.910
MOZHAYETS 4 08 Jul 03:29:53 03:30:38 10° 60° (ENE) 03:31:37
Oscar 19 08 Jul 03:36:04 03:40:59 47° 290° (WNW) 03:45:53 437.125/150
AO-7 08 Jul 03:43:22 03:47:06 14° 84° (E) 03:51:27 29.400- 29.500
YUBILEINY 08 Jul 03:50:30 03:59:09 79° 96° (E) 04:07:53 435.215
AIST 1 08 Jul 03:54:13 03:57:57 28° 270° (W) 04:01:34
ITAMSAT 1 08 Jul 03:56:00 04:01:15 77° 103° (ESE) 04:06:28 435.822/435.867
Gurwin Techsat 1B 08 Jul 04:12:48 04:18:07 73° 286° (WNW) 04:23:25 435.225
KKS-1 08 Jul 04:17:39 04:21:34 29° 265° (W) 04:25:27 437.445
Cosmos 2504 08 Jul 04:27:44 04:29:10 11° 77° (ENE) 04:31:07 435.465 / 435.565
STARS 08 Jul 05:00:56 05:03:56 17° 269° (W) 05:06:47 437.465
MOZHAYETS 4 08 Jul 05:02:35 05:07:11 86° 74° (ENE) 05:11:49
HORYU 2 08 Jul 05:08:37 05:13:04 61° 101° (E) 05:17:30 437.375
JAS-2 08 Jul 05:12:50 05:19:38 81° 286° (WNW) 05:27:10 435.910
Cosmos 2491 08 Jul 05:17:24 05:21:44 14° 284° (WNW) 05:25:28 435.465 / 435.565
RS-15 08 Jul 05:24:55 05:34:43 34° 333° (NNW) 05:44:46 29.354- 29.394
AO-7 08 Jul 05:33:11 05:41:35 73° 106° (ESE) 05:49:55 29.400- 29.500
ITAMSAT 1 08 Jul 05:37:02 05:40:12 16° 300° (WNW) 05:43:09 435.822/435.867
CUBESAT XI-V 08 Jul 05:41:39 05:45:06 21° 66° (ENE) 05:48:42 437.345
YUBILEINY 08 Jul 05:50:17 05:57:08 24° 298° (WNW) 06:03:44 435.215
VERMONT LUNAR 08 Jul 05:55:32 05:56:42 12° 151° (SSE) 05:57:55 437.305
Gurwin Techsat 1B 08 Jul 05:55:40 05:57:17 11° 303° (WNW) 05:58:37 435.225
Cosmos 2504 08 Jul 06:13:19 06:20:11 75° 95° (E) 06:27:10 435.465 / 435.565
STRAND 1 08 Jul 06:35:17 06:39:34 28° 66° (ENE) 06:43:58 437.568
BEESAT 3 08 Jul 06:46:03 06:49:55 43° 118° (ESE) 06:53:50 437.485
O/OREOS (USA 219) 08 Jul 06:46:37 06:50:19 27° 104° (ESE) 06:54:08 437.305
HORYU 2 08 Jul 06:46:38 06:49:16 15° 297° (WNW) 06:51:44 437.375
JAS-2 08 Jul 06:59:45 07:04:00 17° 301° (WNW) 07:08:13 435.910
CUTE-I 08 Jul 07:01:06 07:05:45 30° 94° (E) 07:10:25 437.470
BEESAT 2 08 Jul 07:03:58 07:07:57 53° 120° (ESE) 07:12:00 435.950
DANDE 08 Jul 07:08:48 07:12:39 17° 92° (E) 07:16:13 436.750
AIST 2 08 Jul 07:13:02 07:15:48 17° 112° (ESE) 07:18:41 435.215
CUBESAT XI-V 08 Jul 07:17:44 07:22:16 45° 262° (W) 07:26:49 437.345
CUSAT 1 08 Jul 07:18:02 07:22:38 25° 96° (E) 07:26:28 437.405
PRISM 08 Jul 07:21:47 07:25:56 67° 74° (ENE) 07:30:08 437.425
ISS 08 Jul 07:26:25 07:29:32 46° 142° (SE) 07:32:40 145.825
AO-7 08 Jul 07:26:50 07:33:46 29° 305° (NW) 07:40:28 29.400- 29.500
VERMONT LUNAR 08 Jul 07:30:13 07:33:04 34° 167° (SSE) 07:35:57 437.305
Cubesat XI-IV 08 Jul 07:36:10 07:41:30 61° 101° (E) 07:46:48 437.490
RS-15 08 Jul 07:42:47 07:51:44 26° 7° (N) 08:01:04 29.354- 29.394
Cosmos 2504 08 Jul 08:08:21 08:13:19 20° 298° (WNW) 08:18:04 435.465 / 435.565
STRAND 1 08 Jul 08:13:50 08:18:39 39° 263° (W) 08:23:28 437.568
M-CUBED/EXP-1 PRIME 08 Jul 08:15:40 08:18:23 23° 63° (ENE) 08:21:16 437.505
BEESAT 3 08 Jul 08:24:46 08:28:04 23° 317° (NW) 08:31:20 437.485
O/OREOS (USA 219) 08 Jul 08:25:39 08:29:40 31° 302° (WNW) 08:33:41 437.305
GONETS M04 08 Jul 08:28:42 08:36:10 34° 85° (E) 08:43:47
BRITE-PL 08 Jul 08:34:47 08:38:13 24° 93° (E) 08:41:37 437.365/2234.400
CUTE-I 08 Jul 08:40:58 08:45:55 38° 292° (WNW) 08:50:48 437.470
CANX-2 08 Jul 08:42:25 08:42:55 10° 86° (E) 08:43:42 2200.000
BEESAT 2 08 Jul 08:43:12 08:46:19 20° 319° (NW) 08:49:24 435.950
PHONESAT 2.4 08 Jul 08:47:15 08:50:20 32° 163° (SSE) 08:53:27 2401.200-2431.200
DANDE 08 Jul 08:49:03 08:55:45 69° 281° (W) 09:00:45 436.750
AIST 2 08 Jul 08:49:51 08:54:01 52° 308° (NW) 08:58:14 435.215
CUSAT 1 08 Jul 08:59:48 09:05:11 37° 284° (WNW) 09:09:19 437.405
PRISM 08 Jul 09:00:33 09:01:55 11° 272° (W) 09:03:02 437.425
ISS 08 Jul 09:03:04 09:06:02 31° 340° (NNW) 09:08:59 145.825
VERMONT LUNAR 08 Jul 09:06:41 09:09:42 48° 183° (S) 09:12:44 437.305
AUBIESAT-1 08 Jul 09:11:10 09:14:31 81° 252° (WSW) 09:18:06 437.475
HO-68 08 Jul 09:11:46 09:17:53 30° 94° (E) 09:24:06 435.675
Cubesat XI-IV 08 Jul 09:17:17 09:21:11 20° 298° (WNW) 09:24:54 437.490
SEEDS 08 Jul 09:17:48 09:20:49 19° 91° (E) 09:23:57 437.485
AAUSAT CUBESAT 2 08 Jul 09:19:10 09:21:05 13° 88° (E) 09:23:13 437.432
GOMX 1 08 Jul 09:26:27 09:30:32 52° 100° (E) 09:34:36 467.674
Cosmos 2499 08 Jul 09:41:20 09:45:09 16° 80° (E) 09:49:24 435.465 / 435.565
COMPASS 1 08 Jul 09:47:33 09:51:20 31° 95° (E) 09:55:09 437.405
DOVE 4 08 Jul 09:50:01 09:54:07 58° 100° (E) 09:58:16 437.250
M-CUBED/EXP-1 PRIME 08 Jul 09:50:35 09:53:14 21° 261° (W) 09:55:56 437.505
RS-15 08 Jul 09:56:58 10:07:59 47° 39° (NE) 10:19:34 29.354- 29.394
ANTELSAT 08 Jul 10:04:18 10:07:20 20° 66° (ENE) 10:10:28 437.575/2403.000
CINEMA 3 08 Jul 10:04:48 10:08:42 37° 97° (E) 10:12:44 145.822/145.860
Oscar 11 08 Jul 10:08:23 10:11:40 21° 92° (E) 10:15:03 145.826/435.025
ZACube-1 08 Jul 10:10:04 10:11:56 13° 89° (E) 10:14:02 437.345
CUTE 1.7 + AOD 2 08 Jul 10:11:05 10:15:25 89° 130° (SE) 10:19:42 437.475
BRITE-PL 08 Jul 10:13:08 10:16:50 28° 291° (WNW) 10:20:22 437.365/2234.400
TIGRISAT 08 Jul 10:14:21 10:17:43 24° 67° (ENE) 10:21:09 435.000
POPSAT HIP 1 08 Jul 10:14:43 10:15:31 11° 62° (ENE) 10:16:33 437.405
QB50P2 08 Jul 10:14:48 10:15:55 11° 62° (ENE) 10:17:14 145.880/145.840
CANX-2 08 Jul 10:15:09 10:19:27 74° 284° (WNW) 10:23:44 2200.000
GONETS M04 08 Jul 10:24:05 10:32:41 56° 285° (WNW) 10:41:14
PHONESAT 2.4 08 Jul 10:24:43 10:28:04 52° 180° (S) 10:31:26 2401.200-2431.200
CUBEBUG 2 08 Jul 10:24:53 10:28:38 30° 96° (E) 10:32:30 437.445
AIST 2 08 Jul 10:32:51 10:33:37 10° 329° (NNW) 10:34:15 435.215
DELFI C3 08 Jul 10:39:20 10:42:57 30° 96° (E) 10:46:36 145.870
ISS 08 Jul 10:40:42 10:43:05 19° 359° (N) 10:45:30 145.825
FUNcube-1 08 Jul 10:42:52 10:46:33 28° 95° (E) 10:50:20 145.935
VERMONT LUNAR 08 Jul 10:43:38 10:46:17 25° 199° (SSW) 10:48:55 437.305
QB50P1 08 Jul 10:50:21 10:53:47 25° 68° (ENE) 10:57:17 145.935-145.965
SEEDS 08 Jul 10:52:48 10:56:48 39° 288° (WNW) 11:00:46 437.485
AAUSAT CUBESAT 2 08 Jul 10:52:57 10:57:06 56° 286° (WNW) 11:01:13 437.432
UNISAT 6 08 Jul 10:54:56 10:59:10 66° 74° (ENE) 11:03:24 437.425
HO-68 08 Jul 10:59:01 11:05:59 55° 293° (WNW) 11:12:54 435.675
NANOSAT C BR1 08 Jul 11:02:27 11:06:12 32° 70° (ENE) 11:10:01 145.865
GOMX 1 08 Jul 11:05:58 11:08:19 14° 296° (WNW) 11:10:30 467.674
BUGSAT 1 08 Jul 11:06:09 11:09:29 24° 68° (ENE) 11:12:52 437.445
UWE-3 08 Jul 11:06:38 11:10:53 69° 101° (E) 11:15:13 435.000/436.395/437.385
DUCHIFAT 1 08 Jul 11:07:45 11:11:36 36° 71° (ENE) 11:15:29 145.980
POLYITAN 1 08 Jul 11:18:10 11:22:15 49° 73° (ENE) 11:26:22 437.675
COMPASS 1 08 Jul 11:23:26 11:26:53 24° 292° (WNW) 11:30:15 437.405
DX 1 08 Jul 11:27:33 11:31:21 29° 96° (E) 11:35:10 434.975-435.025
HUMSAT D 08 Jul 11:28:07 11:32:03 38° 98° (E) 11:36:01 437.325/437.525
DOVE 4 08 Jul 11:29:26 11:31:30 13° 296° (WNW) 11:33:24 437.250
Cosmos 2499 08 Jul 11:30:17 11:37:21 85° 280° (W) 11:44:38 435.465 / 435.565
VELOX 1 08 Jul 11:34:57 11:38:10 20° 92° (E) 11:41:30 145.980
ESTCUBE 1 08 Jul 11:35:25 11:37:46 14° 89° (E) 11:40:19 437.505/2401.250
ANTELSAT 08 Jul 11:39:53 11:43:54 39° 262° (W) 11:47:55 437.575/2403.000
UKube-1 08 Jul 11:41:40 11:45:43 38° 98° (E) 11:49:45 .
CINEMA 3 08 Jul 11:42:37 11:45:44 20° 293° (WNW) 11:48:47 145.822/145.860
Oscar 11 08 Jul 11:43:58 11:47:59 37° 289° (WNW) 11:51:59 145.826/435.025
ZACube-1 08 Jul 11:44:32 11:48:43 59° 286° (WNW) 11:52:59 437.345
POPSAT HIP 1 08 Jul 11:46:35 11:50:49 82° 257° (WSW) 11:55:05 437.405
QB50P2 08 Jul 11:47:00 11:51:15 78° 257° (WSW) 11:55:30 145.880/145.840
TIGRISAT 08 Jul 11:50:32 11:54:22 32° 264° (W) 11:58:10 435.000
50 SAT 08 Jul 11:52:51 11:56:27 35° 97° (E) 12:00:07 437.505
CUBEBUG 2 08 Jul 12:01:45 12:05:15 25° 291° (WNW) 12:08:46 437.445
PHONESAT 2.4 08 Jul 12:02:40 12:05:48 33° 196° (SSW) 12:08:57 2401.200-2431.200
RS-15 08 Jul 12:09:35 12:21:07 65° 243° (WSW) 12:33:01 29.354- 29.394
DELFI C3 08 Jul 12:14:38 12:17:55 23° 292° (WNW) 12:21:06 145.870
ISS 08 Jul 12:17:15 12:20:11 30° 19° (NNE) 12:23:07 145.825
FUNcube-1 08 Jul 12:19:14 12:22:50 27° 291° (WNW) 12:26:25 145.935
AISAT 08 Jul 12:22:42 12:27:06 68° 102° (ESE) 12:31:28 437.250
QB50P1 08 Jul 12:25:47 12:29:33 30° 264° (W) 12:33:17 145.935-145.965
CUBEBUG 1 08 Jul 12:26:53 12:31:00 40° 98° (E) 12:35:06 437.445
GONETS M04 08 Jul 12:29:15 12:32:09 11° 311° (NW) 12:34:25
UNISAT 6 08 Jul 12:35:03 12:36:30 11° 273° (W) 12:37:42 437.425
NANOSAT C BR1 08 Jul 12:38:43 12:42:07 23° 267° (W) 12:45:26 145.865
BUGSAT 1 08 Jul 12:41:03 12:44:50 31° 264° (W) 12:48:34 437.445
DUCHIFAT 1 08 Jul 12:44:20 12:47:33 20° 268° (W) 12:50:40 145.980
UWE-3 08 Jul 12:45:05 12:46:58 12° 297° (WNW) 12:48:39 435.000/436.395/437.385
HO-68 08 Jul 12:49:45 12:52:21 12° 312° (NW) 12:54:33 435.675
POLYITAN 1 08 Jul 12:55:57 12:58:30 15° 270° (W) 13:00:53 437.675
DX 1 08 Jul 13:03:51 13:07:32 27° 293° (WNW) 13:11:08 434.975-435.025
HUMSAT D 08 Jul 13:04:29 13:07:34 20° 293° (WNW) 13:10:34 437.325/437.525
ESTCUBE 1 08 Jul 13:10:36 13:15:06 59° 287° (WNW) 13:19:32 437.505/2401.250
VELOX 1 08 Jul 13:10:47 13:14:55 39° 290° (WNW) 13:19:00 145.980
SPROUT 08 Jul 13:12:06 13:16:04 36° 97° (E) 13:20:02 437.525
Oscar 19 08 Jul 13:15:14 13:19:51 36° 68° (ENE) 13:24:33 437.125/150
UKube-1 08 Jul 13:18:19 13:21:38 21° 294° (WNW) 13:24:50 .
Cosmos 2499 08 Jul 13:27:48 13:31:56 15° 302° (WNW) 13:35:47 435.465 / 435.565
50 SAT 08 Jul 13:28:02 13:30:52 19° 293° (WNW) 13:33:36 437.505
TISAT 1 08 Jul 13:36:15 13:40:14 43° 98° (E) 13:44:14 437.305
ITAMSAT 1 08 Jul 13:37:52 13:41:20 19° 62° (ENE) 13:44:57 435.822/435.867
PHONESAT 2.4 08 Jul 13:42:14 13:43:14 11° 211° (SSW) 13:44:09 2401.200-2431.200
ISS 08 Jul 13:53:32 13:56:42 50° 218° (SW) 13:59:50 145.825
Gurwin Techsat 1B 08 Jul 13:56:18 14:00:41 28° 66° (ENE) 14:05:12 435.225
YUBILEINY 08 Jul 13:59:22 14:07:30 42° 70° (ENE) 14:15:46 435.215
AISAT 08 Jul 14:00:57 14:03:11 13° 298° (WNW) 14:05:14 437.250
CUBEBUG 1 08 Jul 14:03:52 14:07:07 20° 294° (WNW) 14:10:15 437.445
PCSat 08 Jul 14:20:26 14:23:31 16° 106° (ESE) 14:26:51 145.827
Cosmos 2491 08 Jul 14:25:06 14:32:00 28° 83° (E) 14:39:10 435.465 / 435.565
RS-15 08 Jul 14:25:49 14:31:41 14° 262° (W) 14:36:30 29.354- 29.394
BEESAT 08 Jul 14:28:10 14:32:12 27° 94° (E) 14:36:17 436.000
AO-7 08 Jul 14:42:57 14:49:25 27° 54° (NE) 14:56:07 29.400- 29.500
SWISSCUBE 08 Jul 14:44:08 14:48:41 42° 98° (E) 14:53:14 437.505
AIST 1 08 Jul 14:48:37 14:51:01 15° 86° (E) 14:53:36
SPROUT 08 Jul 14:48:40 14:51:58 21° 293° (WNW) 14:55:08 437.525
ITUPSAT 1 08 Jul 14:51:37 14:56:14 44° 98° (E) 15:00:50 437.325
Oscar 19 08 Jul 14:54:50 14:59:18 29° 266° (W) 15:03:42 437.125/150
BEESAT 3 08 Jul 15:03:28 15:07:18 39° 49° (NE) 15:11:06 437.485
TISAT 1 08 Jul 15:12:50 15:15:44 18° 295° (WNW) 15:18:30 437.305
ITAMSAT 1 08 Jul 15:15:11 15:20:22 64° 258° (WSW) 15:25:36 435.822/435.867
BEESAT 2 08 Jul 15:22:00 15:25:58 47° 51° (NE) 15:29:54 435.950
SO-50 08 Jul 15:26:41 15:29:34 17° 110° (ESE) 15:32:40 436.795
JAS-2 08 Jul 15:27:27 15:32:25 47° 69° (ENE) 15:37:46 435.910
AIST 2 08 Jul 15:32:37 15:35:46 20° 41° (NE) 15:38:56 435.215
Gurwin Techsat 1B 08 Jul 15:35:29 15:40:31 42° 262° (W) 15:45:33 435.225
YUBILEINY 08 Jul 15:56:14 16:04:29 46° 271° (W) 16:12:38 435.215
Cosmos 2504 08 Jul 15:57:27 16:03:29 26° 66° (ENE) 16:10:05 435.465 / 435.565
PCSat 08 Jul 16:00:58 16:06:23 75° 302° (WNW) 16:11:50 145.827
BEESAT 08 Jul 16:05:45 16:10:07 35° 291° (WNW) 16:14:25 436.000
KKS-1 08 Jul 16:06:53 16:11:10 47° 99° (E) 16:15:27 437.445
HORYU 2 08 Jul 16:07:49 16:12:11 65° 74° (ENE) 16:16:35 437.375
Cosmos 2491 08 Jul 16:19:29 16:28:16 67° 282° (WNW) 16:37:02 435.465 / 435.565
SWISSCUBE 08 Jul 16:22:29 16:26:20 24° 295° (WNW) 16:30:03 437.505
AIST 1 08 Jul 16:23:59 16:28:16 50° 282° (WNW) 16:32:35
ITUPSAT 1 08 Jul 16:30:07 16:33:52 22° 295° (WNW) 16:37:30 437.325
AO-7 08 Jul 16:33:06 16:41:29 80° 254° (WSW) 16:49:55 29.400- 29.500
BEESAT 3 08 Jul 16:41:54 16:45:02 21° 247° (WSW) 16:48:02 437.485
STARS 08 Jul 16:47:33 16:51:58 79° 104° (ESE) 16:56:20 437.465
O/OREOS (USA 219) 08 Jul 16:54:32 16:59:03 64° 64° (ENE) 17:03:35 437.305
MOZHAYETS 4 08 Jul 16:57:27 17:00:43 19° 91° (E) 17:04:06
BEESAT 2 08 Jul 17:00:54 17:03:43 18° 248° (WSW) 17:06:22 435.950
SO-50 08 Jul 17:04:53 17:09:37 66° 307° (NW) 17:14:31 436.795
AIST 2 08 Jul 17:10:33 17:14:40 54° 240° (WSW) 17:18:43 435.215
JAS-2 08 Jul 17:13:55 17:18:00 22° 270° (W) 17:22:07 435.910
Cubesat XI-IV 08 Jul 17:21:58 17:25:12 17° 60° (ENE) 17:28:39 437.490
KKS-1 08 Jul 17:44:23 17:47:30 18° 295° (WNW) 17:50:29 437.445
HORYU 2 08 Jul 17:47:21 17:49:21 12° 272° (W) 17:51:07 437.375
PCSat 08 Jul 17:47:26 17:50:48 16° 324° (NW) 17:54:02 145.827
Cosmos 2504 08 Jul 17:48:47 17:56:20 68° 266° (W) 18:04:25 435.465 / 435.565
Cosmos 2491 08 Jul 18:22:35 18:27:19 15° 307° (NW) 18:31:31 435.465 / 435.565
CUTE-I 08 Jul 18:23:53 18:29:05 54° 71° (ENE) 18:34:22 437.470
STARS 08 Jul 18:26:13 18:27:50 12° 299° (WNW) 18:29:16 437.465
AO-7 08 Jul 18:30:44 18:35:46 16° 274° (W) 18:40:18 29.400- 29.500
MOZHAYETS 4 08 Jul 18:33:44 18:38:12 46° 289° (WNW) 18:42:39
O/OREOS (USA 219) 08 Jul 18:35:45 18:38:00 13° 260° (W) 18:40:02 437.305
GONETS M04 08 Jul 18:37:28 18:42:42 18° 56° (ENE) 18:48:23
SO-50 08 Jul 18:48:23 18:51:10 15° 329° (NNW) 18:53:51 436.795
Cubesat XI-IV 08 Jul 18:59:23 19:04:44 75° 256° (WSW) 19:10:10 437.490
CUBESAT XI-V 08 Jul 19:13:12 19:17:38 41° 97° (E) 19:22:01 437.345
DANDE 08 Jul 19:29:49 19:32:30 77° 258° (WSW) 19:35:05 436.750
CUSAT 1 08 Jul 19:35:42 19:38:02 29° 264° (W) 19:40:28 437.405
HO-68 08 Jul 19:42:16 19:47:57 27° 59° (ENE) 19:53:48 435.675
Cosmos 2504 08 Jul 19:44:43 19:47:26 12° 283° (WNW) 19:49:34 435.465 / 435.565
BRITE-PL 08 Jul 19:45:44 19:50:36 39° 71° (ENE) 19:55:12 437.365/2234.400
CUTE-I 08 Jul 20:05:31 20:09:34 21° 269° (W) 20:13:29 437.470
SEEDS 08 Jul 20:11:38 20:14:11 16° 65° (ENE) 20:16:53 437.485
AAUSAT CUBESAT 2 08 Jul 20:12:18 20:13:29 11° 62° (ENE) 20:14:52 437.432
STRAND 1 08 Jul 20:22:43 20:27:51 66° 101° (ESE) 20:32:57 437.568
GONETS M04 08 Jul 20:32:34 20:41:19 80° 81° (E) 20:50:02
GOMX 1 08 Jul 20:35:05 20:40:02 68° 75° (ENE) 20:44:42 467.674
PRISM 08 Jul 20:38:10 20:42:23 87° 284° (WNW) 20:46:34 437.425
COMPASS 1 08 Jul 20:40:06 20:43:30 25° 68° (ENE) 20:46:59 437.405
CUBESAT XI-V 08 Jul 20:51:10 20:54:51 23° 294° (WNW) 20:58:24 437.345
DOVE 4 08 Jul 20:56:21 21:01:04 70° 75° (ENE) 21:05:31 437.250
Oscar 11 08 Jul 21:04:41 21:07:45 20° 66° (ENE) 21:10:56 145.826/435.025
CUTE 1.7 + AOD 2 08 Jul 21:04:47 21:08:58 73° 76° (ENE) 21:13:13 437.475
CINEMA 3 08 Jul 21:07:43 21:11:50 40° 72° (ENE) 21:15:50 145.822/145.860
ZACube-1 08 Jul 21:08:07 21:09:47 12° 63° (ENE) 21:11:37 437.345
CANX-2 08 Jul 21:08:53 21:13:06 90° 83° (E) 21:17:22 2200.000
Cosmos 2499 08 Jul 21:18:42 21:25:56 38° 71° (ENE) 21:33:47 435.465 / 435.565
CUBEBUG 2 08 Jul 21:24:35 21:28:13 29° 70° (ENE) 21:31:51 437.445
BRITE-PL 08 Jul 21:24:39 21:29:12 27° 266° (W) 21:33:26 437.365/2234.400
DELFI C3 08 Jul 21:28:00 21:31:07 22° 68° (ENE) 21:34:20 145.870
HO-68 08 Jul 21:28:07 21:35:13 66° 257° (WSW) 21:42:21 435.675
M-CUBED/EXP-1 PRIME 08 Jul 21:28:56 21:32:11 20° 98° (E) 21:35:41 437.505
FUNcube-1 08 Jul 21:40:08 21:43:33 26° 69° (ENE) 21:47:01 145.935
AAUSAT CUBESAT 2 08 Jul 21:44:25 21:48:32 74° 258° (WSW) 21:52:44 437.432
SEEDS 08 Jul 21:45:35 21:49:38 48° 261° (W) 21:53:44 437.485
STRAND 1 08 Jul 22:03:08 22:06:36 18° 298° (WNW) 22:09:52 437.568
UWE-3 08 Jul 22:04:55 22:09:04 63° 75° (ENE) 22:13:11 435.000/436.395/437.385
COMPASS 1 08 Jul 22:15:27 22:19:06 28° 265° (W) 22:22:43 437.405
GOMX 1 08 Jul 22:15:59 22:18:37 14° 271° (W) 22:20:56 467.674
HUMSAT D 08 Jul 22:21:10 22:24:46 31° 70° (ENE) 22:28:25 437.325/437.525
AUBIESAT-1 08 Jul 22:23:47 22:28:08 65° 106° (ESE) 22:32:43 437.475
DX 1 08 Jul 22:24:13 22:28:03 31° 69° (ENE) 22:31:56 434.975-435.025
GONETS M04 08 Jul 22:30:56 22:37:17 22° 280° (W) 22:43:15
VELOX 1 08 Jul 22:33:43 22:37:08 22° 66° (ENE) 22:40:38 145.980
ESTCUBE 1 08 Jul 22:36:20 22:39:06 17° 64° (ENE) 22:42:03 437.505/2401.250
DOVE 4 08 Jul 22:37:16 22:39:18 12° 272° (W) 22:41:04 437.250
UKube-1 08 Jul 22:37:28 22:41:29 38° 70° (ENE) 22:45:32 .
50 SAT 08 Jul 22:38:23 22:41:26 23° 69° (ENE) 22:44:34 437.505
Oscar 11 08 Jul 22:39:37 22:43:41 40° 263° (W) 22:47:46 145.826/435.025
ZACube-1 08 Jul 22:41:32 22:45:41 65° 259° (W) 22:49:49 437.345
CUTE 1.7 + AOD 2 08 Jul 22:45:08 22:45:30 10° 274° (W) 22:45:35 437.475
CINEMA 3 08 Jul 22:46:04 22:49:14 19° 268° (W) 22:52:12 145.822/145.860
UNISAT 6 08 Jul 22:47:09 22:49:05 13° 88° (E) 22:51:15 437.425
CUBEBUG 2 08 Jul 23:01:25 23:04:56 24° 266° (W) 23:08:21 437.445
DELFI C3 08 Jul 23:02:30 23:06:04 30° 264° (W) 23:09:39 145.870
M-CUBED/EXP-1 PRIME 08 Jul 23:02:59 23:07:08 44° 293° (WNW) 23:11:30 437.505
PCSat 08 Jul 23:05:07 23:09:11 21° 41° (NE) 23:13:21 145.827
Cosmos 2499 08 Jul 23:11:41 23:19:18 49° 269° (W) 23:27:20 435.465 / 435.565
FUNcube-1 08 Jul 23:16:13 23:19:50 27° 265° (W) 23:23:23 145.935
AISAT 08 Jul 23:21:16 23:25:42 70° 74° (ENE) 23:30:10 437.250
HO-68 08 Jul 23:23:10 23:24:33 10° 278° (W) 23:25:18 435.675
CUBEBUG 1 08 Jul 23:23:57 23:28:04 39° 71° (ENE) 23:32:13 437.445
ANTELSAT 08 Jul 23:30:06 23:34:12 36° 97° (E) 23:38:24 437.575/2403.000
POPSAT HIP 1 08 Jul 23:31:57 23:34:16 15° 90° (E) 23:36:44 437.405
QB50P2 08 Jul 23:32:23 23:34:52 16° 90° (E) 23:37:30 145.880/145.840
TIGRISAT 08 Jul 23:40:09 23:44:23 44° 98° (E) 23:48:43 435.000
UWE-3 08 Jul 23:44:41 23:46:06 11° 272° (W) 23:47:18 435.000/436.395/437.385
